User: anonymous   Login
Location: Unspecified
(0.0000°N, 0.0000°E)
Time: 15:46:24
(UTC+00:00)
Language:

SSETI-EXPRESS DEB - Orbit

View from above orbital plane
View from above orbital plane
View from above satellite
View from above satellite

Ground track
Ground track

The orbit data is extracted from the following two-line orbital elements,

1 28897U 05043H   18344.95214281 +.00000133 +00000-0 +34025-4 0  9993
2 28897 097.9281 130.0683 0015257 222.0960 254.5406 14.64063776691875
Epoch (UTC): 10 December 2018 22:51:05
Eccentricity: 0.0015257
inclination: 97.9281°
perigee height: 669 km
apogee height: 691 km
right ascension of ascending node: 130.0683°
argument of perigee: 222.0960°
revolutions per day: 14.64063776
mean anomaly at epoch: 254.5406°
orbit number at epoch: 69187

The dashed part of the orbit path shows where the satellite is in the earth's shadow,  

DLR